Content
SEND FEEDBACK

Daily
Averages
Monthly
Summary
United States of America

RAPID CITY, SOUTH DAKOTA


Home > North America > United States > South Dakota
Elevation: 3162 feet     Latitude: 44 03N     Longitude: 103 04W

WEATHER
 
SELECT A DAY
Number of Records: 200,148;   Date Range: 1/1/95 - 7/7/14
 
SHARE

PRINT THIS DATA

[ ← Previous Day ]
WEATHER ALMANAC - MARCH 17, 2013
[ Next Day → ]
[ °C ]   °F
Weather ElementAverageHighLow
Temperature28.4 °F44.1 °F (2:52 pm)19.4 °F (4:31 am)
Dewpoint24.7 °F36 °F (2:52 pm)17.6 °F (4:31 am)
Humidity86.5 %100 % (9:52 am)69 % (8:52 pm)
Barometer29.68 in29.98 in (12:52 am)29.38 in (2:52 pm)
Wind Speed22.1 mph44.9 mph (6:52 pm)
Wind Gust58.7 mph (6:58 pm)
Weather ElementAverage
Visibility5.7 mi
Wind DirectionSSW (204.5 °)

Weather ElementTotal
Precipitation0.04 in
Heating Degree Days33.3 (Base 65)
Averaged from 42 records on March 17, 2013
WEATHER CONDITIONS BREAKOUT
WIND DIRECTION BREAKOUT
WEATHER BY HOUR - MARCH 17, 2013
[ °C ]   °F
Local TimeTemperatureDewpointHumidityBarometerVisibilityWind DirectionWind SpeedGust SpeedPrecipitationEventsConditions
12:25 AM23.0 °F21.2 °F93 %29.88 in3.0 miSE (140°)13.8 mphOvercast
12:35 AM23.0 °F21.2 °F93 %29.88 in2.5 miSE (140°)15.0 mphOvercast
12:52 AM23.0 °F21.9 °F96 %29.98 in2.0 miSE (140°)13.8 mphOvercast
1:01 AM23.0 °F21.2 °F93 %29.86 in1.5 miSSE (150°)16.1 mphOvercast
1:26 AM24.8 °F21.2 °F86 %29.85 in1.0 miSSE (150°)15.0 mphMist
1:33 AM24.8 °F21.2 °F86 %29.84 in0.8 miSE (140°)15.0 mphMist
1:52 AM24.1 °F21.9 °F91 %29.94 in0.5 miSSE (150°)16.1 mphFogLight Freezing Fog
2:00 AM24.8 °F21.2 °F86 %29.83 in0.2 miSSE (150°)16.1 mphFogLight Freezing Fog
2:52 AM23.0 °F21.9 °F96 %29.91 in0.2 miSSE (150°)16.1 mphFogLight Freezing Fog
3:52 AM21.0 °F19.9 °F96 %29.87 in0.2 miSSE (150°)16.1 mphFogLight Freezing Fog
4:07 AM21.2 °F19.4 °F93 %29.75 in1.0 miSSE (150°)16.1 mphMist
4:11 AM21.2 °F19.4 °F93 %29.74 in3.0 miSSE (150°)17.3 mphMostly Cloudy
4:31 AM19.4 °F17.6 °F93 %29.73 in7.0 miSSE (150°)16.1 mphPartly Cloudy
4:52 AM19.9 °F18.0 °F92 %29.83 in7.0 miSSE (150°)16.1 mphClear
5:17 AM23.0 °F21.2 °F93 %29.69 in9.0 miSE (140°)19.6 mphMostly Cloudy
5:52 AM24.1 °F21.9 °F91 %29.79 in8.0 miSSE (160°)19.6 mphOvercast
6:52 AM25.0 °F23.0 °F92 %29.75 in8.0 miSSE (160°)15.0 mphOvercast
7:52 AM26.1 °F24.1 °F92 %29.70 in6.0 miSE (140°)13.8 mphOvercast
8:03 AM26.6 °F24.8 °F93 %29.59 in6.0 miSSE (150°)15.0 mphOvercast
8:52 AM27.0 °F25.0 °F92 %29.67 in6.0 miSE (140°)18.4 mphOvercast
9:52 AM28.4 °F28.4 °F100 %29.51 in6.0 miSE (140°)19.6 mphOvercast
10:09 AM30.2 °F28.4 °F93 %29.50 in7.0 miSE (140°)17.3 mphOvercast
10:52 AM32.0 °F28.9 °F88 %29.55 in7.0 miSouth (170°)26.5 mph32.2 mphMostly Cloudy
11:42 AM33.8 °F30.2 °F87 %29.43 in9.0 miSE (140°)19.6 mphScattered Clouds
11:52 AM33.1 °F30.0 °F89 %29.51 in9.0 miSE (140°)16.1 mphScattered Clouds
12:52 PM35.1 °F30.0 °F82 %29.47 in10.0 miSSE (150°)13.8 mphPartly Cloudy
1:52 PM36.0 °F32.0 °F86 %29.43 in10.0 miEast (100°)12.7 mphMostly Cloudy
2:52 PM44.1 °F36.0 °F73 %29.38 in10.0 miVariable3.5 mph18.4 mphScattered Clouds
3:52 PM39.9 °F35.1 °F83 %29.46 in10.0 miNorth (360°)24.2 mph31.1 mph0.04 inRainLight Rain
4:52 PM41.0 °F34.0 °F76 %29.50 in10.0 miNNW (330°)26.5 mph38.0 mph0.00 inPartly Cloudy
5:52 PM34.0 °F28.0 °F79 %29.59 in10.0 miNW (320°)38.0 mph52.9 mph0.00 inOvercast
6:22 PM33.8 °F28.4 °F81 %29.52 in1.8 miNNW (330°)36.8 mph47.2 mph0.00 inSnowLight Snow
6:36 PM32.0 °F28.4 °F87 %29.53 in1.0 miNNW (330°)38.0 mph49.5 mph0.00 inSnowLight Snow
6:40 PM32.0 °F28.4 °F87 %29.53 in0.8 miNNW (340°)36.8 mph49.5 mph0.00 inSnowLight Snow
6:52 PM32.0 °F28.0 °F85 %29.63 in1.0 miNW (320°)44.9 mph55.2 mph0.00 inSnowLight Snow
6:58 PM32.0 °F26.6 °F80 %29.55 in4.0 miNNW (330°)44.9 mph58.7 mph0.00 inSnowLight Snow
7:07 PM30.2 °F26.6 °F86 %29.55 in10.0 miNNW (330°)43.7 mph56.4 mph0.00 inMostly Cloudy
7:52 PM30.2 °F23.0 °F75 %29.58 in10.0 miNNW (330°)44.9 mph56.4 mphClear
8:52 PM30.9 °F21.9 °F69 %29.70 in10.0 miNW (320°)34.5 mph47.2 mphClear
9:52 PM30.0 °F21.0 °F69 %29.73 in10.0 miNNW (330°)29.9 mph41.4 mphMostly Cloudy
10:52 PM28.0 °F19.0 °F69 %29.79 in10.0 miNNW (340°)23.0 mph29.9 mphMostly Cloudy
11:52 PM26.1 °F18.0 °F71 %29.83 in10.0 miNorth (350°)11.5 mphClear
Hourly data recorded from KRAP, located miles away from Rapid City, South Dakota







STORIES FROM OUR PARTNERS